GW6744 Weather Reports


time (UTC)temp
F
wind
direction
speed
knots
gust
knots
rain 1hr
in
rain 24hr
in
rain mn
in
humidity
%
barometer
mb
20260505011544 77 345 1.7 7.0 0.00 0.00 0.00 26 1002.1
20260505010048 77 302 2.6 7.0 0.00 0.00 0.00 26 1001.7
20260505004538 77 28 3.5 7.8 0.00 0.00 0.00 27 1001.9
20260505003044 76 67 0.9 2.6 0.00 0.00 0.00 36 1002.1
20260505001545 76 56 0.0 1.7 0.00 0.00 0.00 37 1002.1
20260505000046 77 81 0.0 3.5 0.00 0.00 0.00 35 1001.8
20260504234540 78 105 0.0 2.6 0.00 0.00 0.00 35 1001.8
20260504233101 78 109 1.7 4.3 0.00 0.00 0.00 34 1001.7
20260504231548 80 79 0.9 2.6 0.00 0.00 0.00 32 1001.6
20260504230053 80 122 0.9 3.5 0.00 0.00 0.00 29 1001.6
20260504224542 81 83 0.9 3.5 0.00 0.00 0.00 30 1001.6
20260504223047 82 105 1.7 5.2 0.00 0.00 0.00 27 1001.9
20260504221546 82 105 1.7 5.2 0.00 0.00 0.00 27 1001.8
20260504220045 82 152 2.6 6.1 0.00 0.00 0.00 28 1002.0
20260504214545 82 122 1.7 6.1 0.00 0.00 0.00 28 1002.1
20260504213037 82 92 1.7 7.0 0.00 0.00 0.00 26 1002.2
20260504211546 82 46 2.6 6.1 0.00 0.00 0.00 28 1002.3
20260504210059 82 154 2.6 7.0 0.00 0.00 0.00 26 1002.4
20260504204549 83 66 1.7 4.3 0.00 0.00 0.00 25 1002.6
20260504203104 84 103 0.9 5.2 0.00 0.00 0.00 24 1002.7
20260504201547 84 127 1.7 6.1 0.00 0.00 0.00 28 1002.9
20260504200045 83 43 1.7 3.5 0.00 0.00 0.00 24 1003.0
20260504194545 82 93 2.6 6.1 0.00 0.00 0.00 26 1003.2
20260504193043 83 106 1.7 7.0 0.00 0.00 0.00 26 1003.2
20260504191543 84 90 2.6 6.1 0.00 0.00 0.00 24 1003.3
20260504190054 82 146 1.7 7.0 0.00 0.00 0.00 27 1003.5
20260504184545 82 82 2.6 5.2 0.00 0.00 0.00 26 1003.7
20260504183045 82 356 1.7 6.1 0.00 0.00 0.00 24 1003.7
20260504181544 83 109 2.6 7.0 0.00 0.00 0.00 24 1003.7
20260504180043 82 21 2.6 7.8 0.00 0.00 0.00 26 1003.7
20260504174539 81 38 2.6 7.8 0.00 0.00 0.00 28 1003.9
20260504173044 78 25 2.6 6.1 0.00 0.00 0.00 31 1004.0
20260504171546 79 11 2.6 8.7 0.00 0.00 0.00 30 1004.0
20260504081559 50 0 0.0 0.9 0.00 0.00 0.00 74 1004.1
20260504044545 61 70 0.9 4.3 0.00 0.00 0.00 50 1005.8
20260504043107 62 39 1.7 5.2 0.00 0.00 0.00 49 1006.0
20260504041539 63 13 1.7 5.2 0.00 0.00 0.00 47 1006.1
20260504040053 62 40 1.7 6.1 0.00 0.00 0.00 49 1006.4
20260504034545 62 337 1.7 5.2 0.00 0.00 0.00 50 1006.6
20260504033048 63 20 1.7 3.5 0.00 0.00 0.00 49 1006.5
20260504031546 64 15 1.7 5.2 0.00 0.00 0.00 48 1006.5
20260504030043 64 325 1.7 4.3 0.00 0.00 0.00 47 1006.5
20260504024550 66 342 1.7 6.1 0.00 0.00 0.00 46 1006.4
20260504023045 69 48 2.6 5.2 0.00 0.00 0.00 43 1006.4
20260504021544 70 12 1.7 7.0 0.00 0.00 0.00 38 1006.4
20260504020046 72 49 1.7 4.3 0.00 0.00 0.00 36 1006.3
20260504014554 72 19 0.9 6.1 0.00 0.00 0.00 36 1006.7
20260504013043 73 359 1.7 5.2 0.00 0.00 0.00 35 1005.9